Location: Colebrook
(42.0017°N, 73.0973°W)
Time: 04:31:43
(UTC-04:00)

Explorer 11/Cluster Stage 4 - Visible Passes

Search period start: 21 October 2021 00:00
Search period end: 31 October 2021 00:00
Orbit: 467 x 1256 km, 28.8° (Epoch: 20 October)

Date Brightness Start Highest point End Pass type
(mag) Time Alt. Az. Time Alt. Az. Time Alt. Az.
21 Oct 9.2 20:05:24 10° SSE 20:05:39 10° SSE 20:05:39 10° SSE visible
22 Oct 9.1 19:53:14 10° S 19:55:12 12° SSE 19:55:12 12° SSE visible
23 Oct 8.9 19:41:22 10° S 19:44:16 13° SSE 19:44:43 13° SSE visible
23 Oct 9.4 21:26:20 10° SW 21:26:49 12° SW 21:26:49 12° SW visible
24 Oct 8.9 19:29:41 10° S 19:32:49 14° SSE 19:34:10 13° SE visible
24 Oct 9.2 21:15:00 10° SW 21:16:17 15° SW 21:16:17 15° SW visible
25 Oct 8.8 19:18:08 10° S 19:21:24 15° SSE 19:23:35 13° SE visible
25 Oct 9.0 21:03:42 10° SW 21:05:41 18° SSW 21:05:41 18° SSW visible
26 Oct 8.7 19:06:41 10° S 19:09:58 15° SSE 19:12:58 11° SE visible
26 Oct 8.8 20:52:28 10° SW 20:55:04 20° SSW 20:55:04 20° SSW visible
27 Oct 8.7 18:55:18 10° SSW 18:58:35 16° SSE 19:02:15 10° ESE visible
27 Oct 8.6 20:41:17 10° SW 20:44:24 22° SSW 20:44:24 22° SSW visible
28 Oct 8.6 18:43:59 10° SSW 18:47:13 16° SSE 18:50:50 10° SE visible
28 Oct 8.4 20:30:07 10° SW 20:33:45 24° SSW 20:33:45 24° SSW visible
29 Oct 8.5 18:32:44 10° SSW 18:35:52 16° SSE 18:39:25 10° SE visible
29 Oct 8.3 20:19:02 10° SW 20:23:05 24° S 20:23:05 24° S visible
30 Oct 8.5 18:21:32 10° SSW 18:24:33 16° SSE 18:27:58 10° SE visible
30 Oct 8.3 20:07:58 10° SW 20:12:16 23° S 20:12:25 23° S visible
